Home   Weather   Port Vila   Past weeks

Flag for Vanuatu Past Weather in Port Vila, Vanuatu — Yesterday and Last 2 Weeks

Now
79 °F

Partly sunny.


Feels Like: 81 °F
Forecast: 76 / 81 °F
Wind: 8 mph from Northeast

Location: Bauerfield Efate

Current Time: Sep 30, 2016 at 2:29:21 PM

Latest Report: Sep 30, 2016 at 1:00 PM


Visibility: N/A

Pressure: 29.92 "Hg

Humidity: 74%

Dew Point: 70 °F

Location of Port VilaLocation

Past Weather in Port Vila — Graph

°F

Port Vila Temperature Yesterday

Maximum temperature yesterday: 82 °F (at 10:00 AM)
Minimum temperature yesterday: 66 °F (at 5:00 AM)
Average temperature yesterday: 74 °F

High & Low Weather Summary for the Past Weeks

 TemperatureHumidityPressure
High84 °F (Sep 24, 10:00 AM)100% (Sep 17, 1:00 AM)30.12 "Hg (Sep 17, 1:00 AM)
Low61 °F (Sep 19, 5:00 AM)22% (Sep 29, 6:00 PM)29.80 "Hg (Sep 24, 3:00 PM)
Average74 °F81%29.92 "Hg
* Reported Sep 15 1:00 PM — Sep 30 1:00 PM, Port Vila, Weather by CustomWeather, © 2016

Note: Actual official high and low records may vary slightly from our data, if they occured in-between our weather recording intervals... More about our weather records

Advertising

Port Vila Weather History for the Previous 24 Hours

Scroll right to see more
 ConditionsComfort  
Time TempWeatherWind HumidityBarometerVisibility
1:00 PM
Fri, Sep 30
79 °FPartly sunny.8 mph74%29.92 "HgN/A
12:00 PM79 °FPartly sunny.8 mph74%29.92 "HgN/A
11:00 AM82 °FPartly sunny.7 mph66%29.95 "HgN/A
10:00 AM84 °FScattered clouds.12 mph62%29.95 "HgN/A
9:00 AM82 °FPassing clouds.8 mph66%29.95 "HgN/A
8:00 AM81 °FPassing clouds.8 mph70%29.95 "HgN/A
7:00 AM75 °FPassing clouds.3 mph83%29.95 "HgN/A
5:00 AM66 °FPassing clouds.2 mph94%29.92 "HgN/A
3:00 AM63 °FPassing clouds.2 mph100%29.89 "HgN/A
2:00 AM64 °FPassing clouds.1 mph94%29.89 "HgN/A
1:00 AM66 °FPassing clouds.2 mph94%29.89 "HgN/A
12:00 AM66 °FPassing clouds.2 mph94%29.92 "HgN/A
11:00 PM
Thu, Sep 29
66 °FPassing clouds.3 mph94%29.92 "HgN/A
10:00 PM68 °FPassing clouds.2 mph94%29.92 "HgN/A
9:00 PM68 °FPassing clouds.2 mph94%29.92 "HgN/A
8:00 PM70 °FPassing clouds.2 mph94%29.92 "HgN/A
7:00 PM73 °FPassing clouds.3 mph83%29.89 "HgN/A
6:00 PM77 °FPassing clouds.3 mph22%29.89 "HgN/A
5:00 PM79 °FScattered clouds.6 mph70%29.86 "HgN/A
4:00 PM81 °FScattered clouds.7 mph66%29.86 "HgN/A
3:00 PM82 °FScattered clouds.9 mph62%29.83 "HgN/A
2:00 PM82 °FScattered clouds.9 mph62%29.83 "HgN/A
Weather by CustomWeather, © 2016

See weather overviewHow to use our weather pages